GW0162 Weather Reports


time (UTC)temp
C
wind
direction
speed
KPH
gust
KPH
rain 1hr
cm
rain 24hr
cm
rain mn
cm
humidity
%
barometer
mb
20260506091552 6 0 0.0 17.7 0.00 0.03 0.03 68 1008.2
20260506090049 6 0 1.6 12.9 0.03 0.03 0.03 67 1008.1
20260506084546 6 335 1.6 9.7 0.03 0.03 0.03 67 1008.0
20260506083040 7 5 4.8 16.1 0.03 0.03 0.03 65 1008.1
20260506081538 7 338 8.0 17.7 0.03 0.03 0.03 65 1008.3
20260506073046 8 0 0.0 3.2 0.00 0.00 0.00 62 1007.8
20260506071540 8 0 0.0 3.2 0.00 0.00 0.00 61 1007.6
20260506061538 8 0 0.0 0.0 0.00 0.00 0.00 58 1007.4
20260506044539 9 0 0.0 0.0 0.00 0.00 0.00 60 1007.3
20260506043046 9 0 0.0 0.0 0.00 0.00 0.00 56 1007.4
20260506041542 10 0 0.0 0.0 0.00 0.00 0.00 57 1007.6
20260506040041 10 0 0.0 0.0 0.00 0.00 0.00 56 1007.6
20260506034552 10 0 0.0 0.0 0.00 0.00 0.00 54 1007.6
20260506033038 10 0 0.0 0.0 0.00 0.00 0.00 55 1007.6
20260506031545 10 0 0.0 0.0 0.00 0.00 0.00 56 1007.5
20260506030044 10 0 0.0 9.7 0.00 0.00 0.00 62 1007.6
20260506024557 10 0 0.0 0.0 0.00 0.00 0.00 71 1007.7
20260506023038 10 0 0.0 0.0 0.00 0.00 0.00 72 1007.7
20260506021537 10 0 0.0 0.0 0.00 0.00 0.00 77 1007.4
20260506020045 10 0 0.0 0.0 0.00 0.00 0.00 78 1007.3
20260506014549 10 0 0.0 0.0 0.00 0.00 0.00 76 1007.3
20260506013100 10 0 0.0 0.0 0.00 0.00 0.00 76 1007.3
20260506011542 10 0 0.0 0.0 0.00 0.00 0.00 75 1007.2
20260506010040 10 0 0.0 0.0 0.00 0.00 0.00 75 1007.1
20260506004543 11 0 0.0 0.0 0.00 0.00 0.00 75 1007.1
20260506003039 11 0 0.0 0.0 0.00 0.00 0.00 73 1006.8
20260506001546 11 0 0.0 0.0 0.00 0.00 0.00 72 1006.6
20260506000044 11 0 0.0 0.0 0.00 0.00 0.00 71 1006.5
20260505234541 12 0 0.0 0.0 0.00 0.00 0.00 70 1006.2
20260505233038 12 0 0.0 0.0 0.00 0.00 0.00 69 1006.2
20260505231541 12 0 0.0 0.0 0.00 0.00 0.00 68 1006.4
20260505230056 12 0 0.0 0.0 0.00 0.00 0.00 67 1006.3
20260505224548 12 0 0.0 8.0 0.00 0.00 0.00 67 1006.5
20260505223055 12 167 0.0 8.0 0.00 0.00 0.00 68 1006.6
20260505221548 12 164 3.2 9.7 0.00 0.00 0.00 68 1006.8
20260505220049 12 0 0.0 6.4 0.00 0.00 0.00 69 1006.6
20260505214545 12 0 0.0 0.0 0.00 0.00 0.00 69 1006.5
20260505213054 12 142 0.0 6.4 0.00 0.00 0.00 71 1006.7
20260505211546 12 0 1.6 6.4 0.00 0.00 0.00 71 1006.6
20260505210047 11 0 0.0 4.8 0.00 0.00 0.00 75 1006.7
20260505204540 11 0 0.0 4.8 0.00 0.00 0.00 79 1006.7
20260505203045 11 0 0.0 6.4 0.00 0.00 0.00 79 1006.7
20260505201545 10 0 0.0 6.4 0.00 0.00 0.00 80 1006.8
20260505200044 10 142 0.0 8.0 0.00 0.00 0.00 80 1006.8
20260505194540 10 138 3.2 12.9 0.00 0.00 0.00 80 1007.1
20260505193038 9 0 0.0 9.7 0.00 0.00 0.00 80 1007.2
20260505191546 9 123 1.6 12.9 0.00 0.00 0.00 79 1007.1
20260505190044 9 0 1.6 11.3 0.00 0.00 0.00 80 1006.8
20260505184538 9 0 0.0 6.4 0.00 0.00 0.00 80 1006.7
20260505183053 9 120 1.6 11.3 0.00 0.00 0.00 79 1006.7
20260505181539 9 0 0.0 11.3 0.00 0.00 0.00 78 1006.7
20260505180040 9 103 1.6 9.7 0.00 0.00 0.00 78 1006.5
20260505174541 9 103 3.2 9.7 0.00 0.00 0.00 78 1006.2
20260505173044 8 0 0.0 3.2 0.00 0.00 0.00 73 1006.6
20260505171545 9 49 1.6 8.0 0.00 0.00 0.00 69 1006.6
20260505170043 10 0 0.0 6.4 0.00 0.00 0.00 62 1006.7
20260505164550 10 0 0.0 8.0 0.00 0.00 0.00 55 1006.7
20260505163041 10 56 1.6 11.3 0.00 0.00 0.00 52 1006.2
20260505161546 11 99 3.2 12.9 0.00 0.00 0.00 51 1006.4
20260505153107 11 60 4.8 14.5 0.00 0.00 0.00 50 1005.5
20260505151548 11 69 6.4 16.1 0.00 0.00 0.00 49 1005.6
20260505124546 9 43 1.6 16.1 0.00 0.00 0.00 56 1003.8
20260505123043 9 5 6.4 19.3 0.00 0.00 0.00 58 1003.8
20260505121542 9 53 4.8 14.5 0.00 0.00 0.00 60 1003.5
20260505120038 9 19 1.6 16.1 0.00 0.00 0.00 61 1003.4
20260505114546 9 24 6.4 17.7 0.00 0.00 0.00 61 1002.8
20260505113042 9 24 4.8 16.1 0.00 0.00 0.00 64 1002.3
20260505111550 10 62 6.4 17.7 0.00 0.00 0.00 65 1002.3
20260505101538 14 0 1.6 17.7 0.00 0.00 0.00 76 1000.7
20260505100049 14 271 4.8 14.5 0.00 0.00 0.00 76 1000.6
20260505094543 14 261 4.8 17.7 0.00 0.00 0.00 75 1000.3
20260505093044 14 248 6.4 17.7 0.00 0.00 0.00 76 1000.1